| time (UTC) | temp F | wind direction | speed MPH | gust MPH | rain 1hr in | rain 24hr in | rain mn in | humidity % | barometer mb |
| 20260902223004 | 76 | 127 | 7.0 | 22.0 | 0.00 | 0.00 | 0.00 | 27 | 880.0 |
| 20260902221600 | 76 | 161 | 5.0 | 23.0 | 0.00 | 0.00 | 0.00 | 26 | 880.0 |
| 20260902220104 | 76 | 120 | 11.0 | 22.0 | 0.00 | 0.00 | 0.00 | 23 | 880.3 |
| 20260902214605 | 76 | 107 | 13.0 | 22.0 | 0.00 | 0.00 | 0.00 | 20 | 880.2 |
| 20260902213056 | 76 | 165 | 11.0 | 23.0 | 0.00 | 0.00 | 0.00 | 20 | 880.3 |
| 20260902211556 | 77 | 144 | 15.0 | 22.0 | 0.00 | 0.00 | 0.00 | 19 | 880.3 |
| 20260902210056 | 76 | 140 | 11.0 | 19.0 | 0.00 | 0.00 | 0.00 | 19 | 880.5 |
| 20260902204555 | 76 | 128 | 11.0 | 23.0 | 0.00 | 0.00 | 0.00 | 20 | 880.6 |
| 20260902203053 | 76 | 144 | 10.0 | 17.0 | 0.00 | 0.00 | 0.00 | 20 | 880.7 |
| 20260902201553 | 76 | 157 | 9.0 | 21.0 | 0.00 | 0.00 | 0.00 | 21 | 880.8 |
| 20260902200052 | 76 | 134 | 8.0 | 21.0 | 0.00 | 0.00 | 0.00 | 22 | 880.8 |
| 20260902194550 | 75 | 137 | 13.0 | 22.0 | 0.00 | 0.00 | 0.00 | 21 | 881.0 |
| 20260902193049 | 75 | 171 | 10.0 | 20.0 | 0.00 | 0.00 | 0.00 | 19 | 881.0 |
| 20260902191550 | 74 | 125 | 9.0 | 17.0 | 0.00 | 0.00 | 0.00 | 19 | 881.2 |
| 20260902190047 | 75 | 147 | 8.0 | 18.0 | 0.00 | 0.00 | 0.00 | 19 | 881.1 |
| 20260902184546 | 74 | 142 | 8.0 | 22.0 | 0.00 | 0.00 | 0.00 | 18 | 881.2 |
| 20260902183043 | 73 | 136 | 11.0 | 22.0 | 0.00 | 0.00 | 0.00 | 19 | 881.3 |
| 20260902181547 | 73 | 162 | 10.0 | 21.0 | 0.00 | 0.00 | 0.00 | 17 | 881.2 |
| 20260902180052 | 73 | 117 | 10.0 | 22.0 | 0.00 | 0.00 | 0.00 | 17 | 881.1 |
| 20260902174538 | 72 | 121 | 10.0 | 18.0 | 0.00 | 0.00 | 0.00 | 18 | 881.2 |
| 20260902173036 | 71 | 97 | 9.0 | 22.0 | 0.00 | 0.00 | 0.00 | 18 | 881.2 |
| 20260902171538 | 71 | 115 | 10.0 | 18.0 | 0.00 | 0.00 | 0.00 | 18 | 881.0 |
| 20260902170031 | 70 | 140 | 8.0 | 18.0 | 0.00 | 0.00 | 0.00 | 18 | 881.0 |
| 20260902164528 | 70 | 143 | 8.0 | 18.0 | 0.00 | 0.00 | 0.00 | 19 | 880.9 |
| 20260902163023 | 69 | 136 | 8.0 | 16.0 | 0.00 | 0.00 | 0.00 | 20 | 880.8 |
| 20260902161535 | 69 | 130 | 10.0 | 15.0 | 0.00 | 0.00 | 0.00 | 19 | 880.7 |
| 20260902160036 | 68 | 132 | 7.0 | 16.0 | 0.00 | 0.00 | 0.00 | 19 | 880.8 |
| 20260902154532 | 67 | 142 | 7.0 | 14.0 | 0.00 | 0.00 | 0.00 | 19 | 880.6 |
| 20260902153139 | 67 | 117 | 6.0 | 16.0 | 0.00 | 0.00 | 0.00 | 20 | 880.6 |
| 20260902151514 | 66 | 106 | 8.0 | 13.0 | 0.00 | 0.00 | 0.00 | 21 | 880.4 |
| 20260902143017 | 63 | 113 | 5.0 | 11.0 | 0.00 | 0.00 | 0.00 | 23 | 880.5 |
| 20260902141524 | 62 | 114 | 7.0 | 13.0 | 0.00 | 0.00 | 0.00 | 23 | 880.5 |
| 20260902133046 | 60 | 125 | 6.0 | 11.0 | 0.00 | 0.00 | 0.00 | 24 | 880.0 |
| 20260902131544 | 60 | 87 | 5.0 | 9.0 | 0.00 | 0.00 | 0.00 | 24 | 879.9 |
| 20260902130044 | 60 | 123 | 3.0 | 9.0 | 0.00 | 0.00 | 0.00 | 25 | 879.8 |
| 20260902124542 | 60 | 94 | 5.0 | 10.0 | 0.00 | 0.00 | 0.00 | 25 | 879.8 |
| 20260902123044 | 60 | 83 | 5.0 | 9.0 | 0.00 | 0.00 | 0.00 | 27 | 879.8 |
| 20260902121540 | 61 | 94 | 5.0 | 11.0 | 0.00 | 0.00 | 0.00 | 34 | 879.7 |
| 20260902120041 | 62 | 86 | 6.0 | 12.0 | 0.00 | 0.00 | 0.00 | 37 | 879.8 |
| 20260902114603 | 62 | 60 | 6.0 | 14.0 | 0.00 | 0.00 | 0.00 | 37 | 879.8 |
| 20260902113052 | 62 | 97 | 6.0 | 12.0 | 0.00 | 0.00 | 0.00 | 36 | 879.8 |
| 20260902111535 | 62 | 127 | 6.0 | 16.0 | 0.00 | 0.00 | 0.00 | 31 | 879.8 |
| 20260902110040 | 62 | 78 | 7.0 | 15.0 | 0.00 | 0.00 | 0.00 | 29 | 879.9 |
| 20260902104538 | 62 | 129 | 8.0 | 16.0 | 0.00 | 0.00 | 0.00 | 26 | 879.9 |
| 20260902103033 | 62 | 121 | 8.0 | 15.0 | 0.00 | 0.00 | 0.00 | 27 | 879.9 |
| 20260902101529 | 62 | 101 | 6.0 | 14.0 | 0.00 | 0.00 | 0.00 | 29 | 879.9 |
| 20260902100029 | 61 | 80 | 6.0 | 13.0 | 0.00 | 0.00 | 0.00 | 27 | 880.1 |
| 20260902094529 | 61 | 94 | 5.0 | 13.0 | 0.00 | 0.00 | 0.00 | 25 | 880.2 |
| 20260902093027 | 61 | 116 | 6.0 | 13.0 | 0.00 | 0.00 | 0.00 | 25 | 880.1 |
| 20260902091528 | 61 | 145 | 5.0 | 9.0 | 0.00 | 0.00 | 0.00 | 27 | 880.2 |
| 20260902090024 | 61 | 141 | 5.0 | 13.0 | 0.00 | 0.00 | 0.00 | 25 | 880.4 |
| 20260902084526 | 62 | 115 | 5.0 | 10.0 | 0.00 | 0.00 | 0.00 | 25 | 880.5 |
| 20260902083027 | 61 | 119 | 4.0 | 10.0 | 0.00 | 0.00 | 0.00 | 28 | 880.5 |
| 20260902081518 | 60 | 92 | 6.0 | 13.0 | 0.00 | 0.00 | 0.00 | 26 | 880.5 |
| 20260902080016 | 60 | 98 | 4.0 | 9.0 | 0.00 | 0.00 | 0.00 | 26 | 880.5 |
| 20260902074518 | 60 | 112 | 5.0 | 9.0 | 0.00 | 0.00 | 0.00 | 26 | 880.4 |
| 20260902073012 | 59 | 96 | 3.0 | 8.0 | 0.00 | 0.00 | 0.00 | 27 | 880.5 |
| 20260902071510 | 58 | 76 | 3.0 | 9.0 | 0.00 | 0.00 | 0.00 | 28 | 880.4 |
| 20260902070009 | 58 | 94 | 2.0 | 7.0 | 0.00 | 0.00 | 0.00 | 29 | 880.4 |
| 20260902064508 | 59 | 75 | 2.0 | 8.0 | 0.00 | 0.00 | 0.00 | 28 | 880.3 |
| 20260902063015 | 59 | 101 | 3.0 | 9.0 | 0.00 | 0.00 | 0.00 | 29 | 880.3 |
| 20260902061521 | 60 | 37 | 4.0 | 9.0 | 0.00 | 0.00 | 0.00 | 28 | 880.1 |
| 20260902060015 | 59 | 82 | 2.0 | 8.0 | 0.00 | 0.00 | 0.00 | 28 | 880.0 |
| 20260902054510 | 60 | 76 | 3.0 | 9.0 | 0.00 | 0.00 | 0.00 | 28 | 880.0 |
| 20260902053008 | 60 | 102 | 4.0 | 10.0 | 0.00 | 0.00 | 0.00 | 28 | 880.1 |
| 20260902051505 | 60 | 106 | 6.0 | 10.0 | 0.00 | 0.00 | 0.00 | 28 | 880.2 |
| 20260902050007 | 59 | 67 | 3.0 | 8.0 | 0.00 | 0.00 | 0.00 | 30 | 880.2 |
| 20260902044504 | 59 | 90 | 3.0 | 9.0 | 0.00 | 0.00 | 0.00 | 32 | 880.2 |
| 20260902043004 | 58 | 71 | 3.0 | 9.0 | 0.00 | 0.00 | 0.00 | 34 | 880.2 |
| 20260902041506 | 58 | 76 | 4.0 | 8.0 | 0.00 | 0.00 | 0.00 | 37 | 879.8 |
| 20260902040001 | 59 | 92 | 5.0 | 9.0 | 0.00 | 0.00 | 0.00 | 52 | 879.7 |
| 20260902034504 | 59 | 117 | 5.0 | 9.0 | 0.00 | 0.00 | 0.00 | 55 | 879.5 |
| 20260902033105 | 60 | 118 | 5.0 | 13.0 | 0.00 | 0.00 | 0.00 | 57 | 879.3 |
| 20260902031555 | 61 | 97 | 6.0 | 12.0 | 0.00 | 0.00 | 0.00 | 50 | 879.2 |
| 20260902030054 | 62 | 109 | 7.0 | 16.0 | 0.00 | 0.00 | 0.00 | 54 | 879.0 |
| 20260902024553 | 62 | 108 | 9.0 | 15.0 | 0.00 | 0.00 | 0.00 | 53 | 878.9 |
| 20260902023052 | 63 | 128 | 7.0 | 13.0 | 0.00 | 0.00 | 0.00 | 52 | 878.9 |
| 20260902021549 | 64 | 98 | 6.0 | 14.0 | 0.00 | 0.00 | 0.00 | 49 | 878.8 |
| 20260902020056 | 65 | 119 | 7.0 | 15.0 | 0.00 | 0.00 | 0.00 | 46 | 878.9 |
| 20260902014547 | 66 | 76 | 9.0 | 17.0 | 0.00 | 0.00 | 0.00 | 44 | 878.9 |
| 20260902013048 | 67 | 154 | 11.0 | 22.0 | 0.00 | 0.00 | 0.00 | 43 | 878.9 |
| 20260902011545 | 68 | 137 | 11.0 | 21.0 | 0.00 | 0.00 | 0.00 | 42 | 879.0 |
| 20260902010045 | 69 | 114 | 13.0 | 20.0 | 0.00 | 0.00 | 0.00 | 43 | 879.1 |
| 20260902004545 | 70 | 92 | 10.0 | 22.0 | 0.00 | 0.00 | 0.00 | 44 | 879.2 |
| 20260902003046 | 71 | 106 | 13.0 | 23.0 | 0.00 | 0.00 | 0.00 | 46 | 879.1 |
| 20260902001552 | 72 | 146 | 12.0 | 21.0 | 0.00 | 0.00 | 0.00 | 45 | 879.3 |
| 20260902000045 | 73 | 111 | 12.0 | 22.0 | 0.00 | 0.00 | 0.00 | 45 | 879.4 |
| 20260901234542 | 73 | 132 | 12.0 | 18.0 | 0.00 | 0.00 | 0.00 | 45 | 879.5 |
| 20260901233056 | 74 | 143 | 13.0 | 24.0 | 0.00 | 0.00 | 0.00 | 45 | 879.6 |
| 20260901231541 | 75 | 121 | 11.0 | 31.0 | 0.00 | 0.00 | 0.00 | 44 | 879.6 |
| 20260901230041 | 75 | 126 | 11.0 | 21.0 | 0.00 | 0.00 | 0.00 | 45 | 879.8 |
| 20260901224540 | 76 | 157 | 12.0 | 24.0 | 0.00 | 0.00 | 0.00 | 43 | 879.8 |